Time,TemperatureF,DewpointF,PressureIn,WindDirection,WindDirectionDegrees,WindSpeedMPH,WindSpeedGustMPH,Humidity,HourlyPrecipIn,Conditions,Clouds,dailyrainin,SoftwareType,DateUTC
2013-06-11 00:02:00,64.0,62.0,-100.00,SW,220,2.0,2.0,93,-99.99,,,-99.99,,2013-06-11 05:02:00,
2013-06-11 00:12:00,64.0,62.0,-100.00,SW,220,2.0,2.0,93,-99.99,,,-99.99,,2013-06-11 05:12:00,
2013-06-11 00:22:00,64.0,62.0,-100.00,SW,220,2.0,2.0,93,-99.99,,,-99.99,,2013-06-11 05:22:00,
2013-06-11 00:32:00,64.0,62.0,-100.00,South,185,0.0,0.0,94,-99.99,,,-99.99,,2013-06-11 05:32:00,
2013-06-11 00:42:00,63.0,61.0,-100.00,South,190,0.0,0.0,94,-99.99,,,-99.99,,2013-06-11 05:42:00,
2013-06-11 00:52:00,63.0,61.0,-100.00,South,190,0.0,0.0,94,-99.99,,,-99.99,,2013-06-11 05:52:00,
2013-06-11 01:02:00,63.0,62.0,-100.00,NW,305,0.0,0.0,95,-99.99,,,-99.99,,2013-06-11 06:02:00,
2013-06-11 01:12:00,63.0,61.0,-100.00,WSW,245,1.0,2.0,95,-99.99,,,-99.99,,2013-06-11 06:12:00,
2013-06-11 01:22:00,63.0,61.0,-100.00,WSW,245,1.0,2.0,95,-99.99,,,-99.99,,2013-06-11 06:22:00,
2013-06-11 01:32:00,63.0,61.0,-100.00,SW,230,0.0,1.0,95,-99.99,,,-99.99,,2013-06-11 06:32:00,
2013-06-11 01:42:00,63.0,61.0,-100.00,West,265,0.0,0.0,95,-99.99,,,-99.99,,2013-06-11 06:42:00,
2013-06-11 01:52:00,63.0,61.0,-100.00,West,265,0.0,0.0,95,-99.99,,,-99.99,,2013-06-11 06:52:00,
2013-06-11 02:02:00,62.0,61.0,-100.00,SW,225,0.0,0.0,95,-99.99,,,-99.99,,2013-06-11 07:02:00,
2013-06-11 02:12:00,62.0,61.0,-100.00,West,270,0.0,0.0,96,-99.99,,,-99.99,,2013-06-11 07:12:00,
2013-06-11 02:22:00,62.0,61.0,-100.00,West,270,0.0,0.0,96,-99.99,,,-99.99,,2013-06-11 07:22:00,
2013-06-11 02:32:00,61.0,60.0,-100.00,West,275,1.0,1.0,96,-99.99,,,-99.99,,2013-06-11 07:32:00,
2013-06-11 02:42:00,61.0,60.0,-100.00,SW,225,1.0,1.0,96,-99.99,,,-99.99,,2013-06-11 07:42:00,
2013-06-11 02:52:00,61.0,60.0,-100.00,SW,225,1.0,1.0,96,-99.99,,,-99.99,,2013-06-11 07:52:00,
2013-06-11 03:02:00,61.0,60.0,-100.00,SSW,205,0.0,1.0,96,-99.99,,,-99.99,,2013-06-11 08:02:00,
2013-06-11 03:12:00,61.0,60.0,-100.00,West,275,0.0,0.0,96,-99.99,,,-99.99,,2013-06-11 08:12:00,
2013-06-11 03:22:00,61.0,60.0,-100.00,West,275,0.0,0.0,96,-99.99,,,-99.99,,2013-06-11 08:22:00,
2013-06-11 03:32:00,61.0,59.0,-100.00,South,185,0.0,0.0,96,-99.99,,,-99.99,,2013-06-11 08:32:00,
2013-06-11 03:42:00,60.0,59.0,-100.00,South,185,0.0,1.0,96,-99.99,,,-99.99,,2013-06-11 08:42:00,
2013-06-11 03:52:00,60.0,59.0,-100.00,South,185,0.0,1.0,96,-99.99,,,-99.99,,2013-06-11 08:52:00,
2013-06-11 04:02:00,60.0,59.0,-100.00,NNW,330,0.0,0.0,96,-99.99,,,-99.99,,2013-06-11 09:02:00,
2013-06-11 04:12:00,60.0,59.0,-100.00,NW,325,0.0,0.0,96,-99.99,,,-99.99,,2013-06-11 09:12:00,
2013-06-11 04:22:00,60.0,59.0,-100.00,NW,325,0.0,0.0,96,-99.99,,,-99.99,,2013-06-11 09:22:00,
2013-06-11 04:33:00,60.0,59.0,-100.00,North,10,1.0,1.0,96,-99.99,,,-99.99,,2013-06-11 09:33:00,
2013-06-11 04:43:00,60.0,58.0,-100.00,South,175,0.0,1.0,96,-99.99,,,-99.99,,2013-06-11 09:43:00,
2013-06-11 04:53:00,60.0,58.0,-100.00,South,175,0.0,1.0,96,-99.99,,,-99.99,,2013-06-11 09:53:00,
2013-06-11 05:03:00,60.0,59.0,-100.00,NW,320,0.0,0.0,96,-99.99,,,-99.99,,2013-06-11 10:03:00,
2013-06-11 05:12:00,59.0,58.0,-100.00,NNE,15,0.0,0.0,97,-99.99,,,-99.99,,2013-06-11 10:12:00,
2013-06-11 05:22:00,59.0,58.0,-100.00,NNE,15,0.0,0.0,97,-99.99,,,-99.99,,2013-06-11 10:22:00,
2013-06-11 05:33:00,59.0,58.0,-100.00,South,190,1.0,3.0,96,-99.99,,,-99.99,,2013-06-11 10:33:00,
2013-06-11 05:42:00,59.0,57.0,-100.00,SE,140,0.0,0.0,96,-99.99,,,-99.99,,2013-06-11 10:42:00,
2013-06-11 05:52:00,59.0,57.0,-100.00,SE,140,0.0,0.0,96,-99.99,,,-99.99,,2013-06-11 10:52:00,
2013-06-11 06:02:00,59.0,58.0,-100.00,North,350,0.0,1.0,96,-99.99,,,-99.99,,2013-06-11 11:02:00,
2013-06-11 06:12:00,59.0,57.0,-100.00,NNE,20,4.0,6.0,96,-99.99,,,-99.99,,2013-06-11 11:12:00,
2013-06-11 06:22:00,59.0,57.0,-100.00,NNE,20,4.0,6.0,96,-99.99,,,-99.99,,2013-06-11 11:22:00,
2013-06-11 06:32:00,59.0,58.0,-100.00,SW,220,4.0,4.0,96,-99.99,,,-99.99,,2013-06-11 11:32:00,
2013-06-11 06:42:00,60.0,59.0,-100.00,SW,225,3.0,4.0,96,-99.99,,,-99.99,,2013-06-11 11:42:00,
2013-06-11 06:52:00,60.0,59.0,-100.00,SW,225,3.0,4.0,96,-99.99,,,-99.99,,2013-06-11 11:52:00,
2013-06-11 07:02:00,61.0,60.0,-100.00,SW,220,3.0,6.0,97,-99.99,,,-99.99,,2013-06-11 12:02:00,
2013-06-11 07:12:00,62.0,62.0,-100.00,South,190,3.0,4.0,97,-99.99,,,-99.99,,2013-06-11 12:12:00,
2013-06-11 07:22:00,62.0,62.0,-100.00,South,190,3.0,4.0,97,-99.99,,,-99.99,,2013-06-11 12:22:00,
2013-06-11 07:32:00,64.0,63.0,-100.00,South,190,2.0,3.0,97,-99.99,,,-99.99,,2013-06-11 12:32:00,
2013-06-11 07:42:00,64.0,63.0,-100.00,SSW,195,3.0,3.0,97,-99.99,,,-99.99,,2013-06-11 12:42:00,
2013-06-11 07:52:00,64.0,63.0,-100.00,SSW,195,3.0,3.0,97,-99.99,,,-99.99,,2013-06-11 12:52:00,
2013-06-11 08:02:00,66.0,65.0,-100.00,SSW,210,3.0,6.0,96,-99.99,,,-99.99,,2013-06-11 13:02:00,
2013-06-11 08:12:00,68.0,67.0,-100.00,South,185,3.0,4.0,96,-99.99,,,-99.99,,2013-06-11 13:12:00,
2013-06-11 08:22:00,68.0,67.0,-100.00,South,185,3.0,4.0,96,-99.99,,,-99.99,,2013-06-11 13:22:00,
2013-06-11 08:32:00,70.0,69.0,-100.00,SSW,195,3.0,4.0,96,-99.99,,,-99.99,,2013-06-11 13:32:00,
2013-06-11 08:42:00,71.0,69.0,-100.00,SSE,160,4.0,4.0,92,-99.99,,,-99.99,,2013-06-11 13:42:00,
2013-06-11 08:52:00,71.0,69.0,-100.00,SSE,160,4.0,4.0,92,-99.99,,,-99.99,,2013-06-11 13:52:00,
2013-06-11 09:02:00,72.0,65.0,-100.00,SSW,200,6.0,8.0,77,-99.99,,,-99.99,,2013-06-11 14:02:00,
2013-06-11 09:12:00,73.0,65.0,-100.00,SE,140,6.0,8.0,74,-99.99,,,-99.99,,2013-06-11 14:12:00,
2013-06-11 09:22:00,73.0,65.0,-100.00,SE,140,6.0,8.0,74,-99.99,,,-99.99,,2013-06-11 14:22:00,
2013-06-11 09:32:00,75.0,64.0,-100.00,SE,140,6.0,9.0,69,-99.99,,,-99.99,,2013-06-11 14:32:00,
2013-06-11 09:42:00,77.0,63.0,-100.00,South,175,3.0,6.0,63,-99.99,,,-99.99,,2013-06-11 14:42:00,
2013-06-11 09:53:00,77.0,63.0,-100.00,South,175,3.0,6.0,63,-99.99,,,-99.99,,2013-06-11 14:53:00,
2013-06-11 10:02:00,76.0,62.0,-100.00,SSE,155,3.0,4.0,62,-99.99,,,-99.99,,2013-06-11 15:02:00,
2013-06-11 10:12:00,78.0,63.0,-100.00,SSW,195,4.0,9.0,60,-99.99,,,-99.99,,2013-06-11 15:12:00,
2013-06-11 10:22:00,78.0,63.0,-100.00,SSW,195,4.0,9.0,60,-99.99,,,-99.99,,2013-06-11 15:22:00,
2013-06-11 10:33:00,78.0,62.0,-100.00,South,175,8.0,10.0,58,-99.99,,,-99.99,,2013-06-11 15:33:00,
2013-06-11 10:42:00,79.0,62.0,-100.00,SSE,165,8.0,9.0,57,-99.99,,,-99.99,,2013-06-11 15:42:00,
2013-06-11 10:53:00,79.0,62.0,-100.00,SSE,165,8.0,9.0,57,-99.99,,,-99.99,,2013-06-11 15:53:00,
2013-06-11 11:03:00,80.0,63.0,-100.00,South,175,6.0,11.0,57,-99.99,,,-99.99,,2013-06-11 16:03:00,
2013-06-11 11:12:00,80.0,63.0,-100.00,South,170,9.0,17.0,56,-99.99,,,-99.99,,2013-06-11 16:12:00,
2013-06-11 11:22:00,80.0,63.0,-100.00,South,170,9.0,17.0,56,-99.99,,,-99.99,,2013-06-11 16:22:00,
2013-06-11 11:33:00,81.0,64.0,-100.00,SSE,160,9.0,11.0,56,-99.99,,,-99.99,,2013-06-11 16:33:00,
2013-06-11 11:42:00,80.0,63.0,-100.00,South,180,12.0,16.0,56,-99.99,,,-99.99,,2013-06-11 16:42:00,
2013-06-11 11:52:00,80.0,63.0,-100.00,South,180,12.0,16.0,56,-99.99,,,-99.99,,2013-06-11 16:52:00,
2013-06-11 12:02:00,81.0,64.0,-100.00,SSE,160,14.0,18.0,56,-99.99,,,-99.99,,2013-06-11 17:02:00,
2013-06-11 12:12:00,81.0,64.0,-100.00,SSE,160,10.0,14.0,56,-99.99,,,-99.99,,2013-06-11 17:12:00,
2013-06-11 12:22:00,81.0,64.0,-100.00,SSE,160,10.0,14.0,56,-99.99,,,-99.99,,2013-06-11 17:22:00,
2013-06-11 12:32:00,82.0,65.0,-100.00,SE,140,8.0,9.0,57,-99.99,,,-99.99,,2013-06-11 17:32:00,
2013-06-11 12:43:00,82.0,64.0,-100.00,SSE,150,10.0,14.0,55,-99.99,,,-99.99,,2013-06-11 17:43:00,
2013-06-11 12:52:00,82.0,64.0,-100.00,SSE,150,10.0,14.0,55,-99.99,,,-99.99,,2013-06-11 17:52:00,
2013-06-11 13:02:00,82.0,65.0,-100.00,SSE,155,6.0,12.0,56,-99.99,,,-99.99,,2013-06-11 18:02:00,
2013-06-11 13:12:00,84.0,65.0,-100.00,SSE,165,12.0,16.0,53,-99.99,,,-99.99,,2013-06-11 18:12:00,
2013-06-11 13:22:00,84.0,65.0,-100.00,SSE,165,12.0,16.0,53,-99.99,,,-99.99,,2013-06-11 18:22:00,
2013-06-11 13:32:00,84.0,65.0,-100.00,South,190,12.0,17.0,53,-99.99,,,-99.99,,2013-06-11 18:32:00,
2013-06-11 13:42:00,85.0,66.0,-100.00,South,175,9.0,12.0,54,-99.99,,,-99.99,,2013-06-11 18:42:00,
2013-06-11 13:52:00,85.0,66.0,-100.00,South,175,9.0,12.0,54,-99.99,,,-99.99,,2013-06-11 18:52:00,
2013-06-11 14:02:00,85.0,66.0,-100.00,South,180,12.0,16.0,53,-99.99,,,-99.99,,2013-06-11 19:02:00,
2013-06-11 14:12:00,87.0,67.0,-100.00,SSE,165,11.0,16.0,52,-99.99,,,-99.99,,2013-06-11 19:12:00,
2013-06-11 14:22:00,87.0,67.0,-100.00,SSE,165,11.0,16.0,52,-99.99,,,-99.99,,2013-06-11 19:22:00,
2013-06-11 14:33:00,88.0,67.0,-100.00,SSW,210,10.0,16.0,51,-99.99,,,-99.99,,2013-06-11 19:33:00,
2013-06-11 14:42:00,88.0,68.0,-100.00,SSW,210,8.0,10.0,52,-99.99,,,-99.99,,2013-06-11 19:42:00,
2013-06-11 14:53:00,88.0,68.0,-100.00,SSW,210,8.0,10.0,52,-99.99,,,-99.99,,2013-06-11 19:53:00,
2013-06-11 15:03:00,89.0,69.0,-100.00,SSW,200,6.0,9.0,52,-99.99,,,-99.99,,2013-06-11 20:03:00,
2013-06-11 15:12:00,89.0,68.0,-100.00,SSW,210,4.0,6.0,50,-99.99,,,-99.99,,2013-06-11 20:12:00,
2013-06-11 15:22:00,89.0,68.0,-100.00,SSW,210,4.0,6.0,50,-99.99,,,-99.99,,2013-06-11 20:22:00,
2013-06-11 15:32:00,90.0,69.0,-100.00,SSE,165,3.0,6.0,50,-99.99,,,-99.99,,2013-06-11 20:32:00,
2013-06-11 15:42:00,89.0,68.0,-100.00,South,170,4.0,6.0,50,-99.99,,,-99.99,,2013-06-11 20:42:00,
2013-06-11 15:52:00,89.0,68.0,-100.00,South,170,4.0,6.0,50,-99.99,,,-99.99,,2013-06-11 20:52:00,
2013-06-11 16:02:00,89.0,69.0,-100.00,SSE,165,6.0,8.0,52,-99.99,,,-99.99,,2013-06-11 21:02:00,
2013-06-11 16:12:00,90.0,70.0,-100.00,SE,135,9.0,10.0,52,-99.99,,,-99.99,,2013-06-11 21:12:00,
2013-06-11 16:22:00,90.0,70.0,-100.00,SE,135,9.0,10.0,52,-99.99,,,-99.99,,2013-06-11 21:22:00,
2013-06-11 16:33:00,89.0,70.0,-100.00,South,175,4.0,8.0,53,-99.99,,,-99.99,,2013-06-11 21:33:00,
2013-06-11 16:42:00,90.0,70.0,-100.00,SSE,165,3.0,6.0,52,-99.99,,,-99.99,,2013-06-11 21:42:00,
2013-06-11 16:53:00,90.0,70.0,-100.00,SSE,165,3.0,6.0,52,-99.99,,,-99.99,,2013-06-11 21:53:00,
2013-06-11 17:03:00,90.0,69.0,-100.00,SSE,155,6.0,9.0,50,-99.99,,,-99.99,,2013-06-11 22:03:00,
2013-06-11 17:12:00,89.0,69.0,-100.00,SSW,195,6.0,6.0,52,-99.99,,,-99.99,,2013-06-11 22:12:00,
2013-06-11 17:22:00,89.0,69.0,-100.00,SSW,195,6.0,6.0,52,-99.99,,,-99.99,,2013-06-11 22:22:00,
2013-06-11 17:33:00,89.0,70.0,-100.00,SSW,200,6.0,9.0,53,-99.99,,,-99.99,,2013-06-11 22:33:00,
2013-06-11 17:42:00,89.0,70.0,-100.00,South,185,4.0,6.0,53,-99.99,,,-99.99,,2013-06-11 22:42:00,
2013-06-11 17:52:00,89.0,70.0,-100.00,South,185,4.0,6.0,53,-99.99,,,-99.99,,2013-06-11 22:52:00,
2013-06-11 18:02:00,89.0,70.0,-100.00,SSW,195,6.0,9.0,53,-99.99,,,-99.99,,2013-06-11 23:02:00,
2013-06-11 18:12:00,90.0,68.0,-100.00,SSW,210,4.0,6.0,49,-99.99,,,-99.99,,2013-06-11 23:12:00,
2013-06-11 18:22:00,90.0,68.0,-100.00,SSW,210,4.0,6.0,49,-99.99,,,-99.99,,2013-06-11 23:22:00,
2013-06-11 18:32:00,89.0,69.0,-100.00,SSW,205,4.0,6.0,52,-99.99,,,-99.99,,2013-06-11 23:32:00,
2013-06-11 18:42:00,89.0,69.0,-100.00,SW,230,6.0,8.0,53,-99.99,,,-99.99,,2013-06-11 23:42:00,
2013-06-11 18:52:00,89.0,69.0,-100.00,SW,230,6.0,8.0,53,-99.99,,,-99.99,,2013-06-11 23:52:00,
2013-06-11 19:02:00,89.0,68.0,-100.00,WSW,240,4.0,6.0,50,-99.99,,,-99.99,,2013-06-12 00:02:00,
2013-06-11 19:12:00,88.0,67.0,-100.00,SSW,205,3.0,6.0,49,-99.99,,,-99.99,,2013-06-12 00:12:00,
2013-06-11 19:22:00,88.0,67.0,-100.00,SSW,205,3.0,6.0,49,-99.99,,,-99.99,,2013-06-12 00:22:00,
2013-06-11 19:32:00,88.0,67.0,-100.00,SSW,205,3.0,6.0,49,-99.99,,,-99.99,,2013-06-12 00:32:00,
2013-06-11 19:42:00,87.0,67.0,-100.00,SSW,210,3.0,3.0,51,-99.99,,,-99.99,,2013-06-12 00:42:00,
2013-06-11 19:52:00,87.0,67.0,-100.00,SSW,210,3.0,3.0,51,-99.99,,,-99.99,,2013-06-12 00:52:00,
2013-06-11 20:02:00,86.0,67.0,-100.00,WSW,240,1.0,3.0,54,-99.99,,,-99.99,,2013-06-12 01:02:00,
2013-06-11 20:12:00,85.0,67.0,-100.00,WSW,240,2.0,3.0,54,-99.99,,,-99.99,,2013-06-12 01:12:00,
2013-06-11 20:22:00,85.0,67.0,-100.00,WSW,240,2.0,3.0,54,-99.99,,,-99.99,,2013-06-12 01:22:00,
2013-06-11 20:32:00,85.0,68.0,-100.00,SW,235,0.0,1.0,57,-99.99,,,-99.99,,2013-06-12 01:32:00,
2013-06-11 20:42:00,83.0,68.0,-100.00,SSW,200,1.0,2.0,61,-99.99,,,-99.99,,2013-06-12 01:42:00,
2013-06-11 20:52:00,83.0,68.0,-100.00,SSW,200,1.0,2.0,61,-99.99,,,-99.99,,2013-06-12 01:52:00,
2013-06-11 21:02:00,82.0,70.0,-100.00,SSW,210,2.0,3.0,66,-99.99,,,-99.99,,2013-06-12 02:02:00,
2013-06-11 21:12:00,82.0,70.0,-100.00,South,185,2.0,3.0,68,-99.99,,,-99.99,,2013-06-12 02:12:00,
2013-06-11 21:22:00,82.0,70.0,-100.00,South,185,2.0,3.0,68,-99.99,,,-99.99,,2013-06-12 02:22:00,
2013-06-11 21:32:00,81.0,71.0,-100.00,South,180,2.0,3.0,74,-99.99,,,-99.99,,2013-06-12 02:32:00,
2013-06-11 21:42:00,80.0,72.0,-100.00,South,190,3.0,4.0,77,-99.99,,,-99.99,,2013-06-12 02:42:00,
2013-06-11 21:52:00,80.0,72.0,-100.00,South,190,3.0,4.0,77,-99.99,,,-99.99,,2013-06-12 02:52:00,
2013-06-11 22:02:00,80.0,72.0,-100.00,South,185,2.0,3.0,78,-99.99,,,-99.99,,2013-06-12 03:02:00,
2013-06-11 22:12:00,80.0,72.0,-100.00,South,190,4.0,6.0,78,-99.99,,,-99.99,,2013-06-12 03:12:00,
2013-06-11 22:22:00,80.0,72.0,-100.00,South,190,4.0,6.0,78,-99.99,,,-99.99,,2013-06-12 03:22:00,
2013-06-11 22:32:00,79.0,72.0,-100.00,SSW,200,4.0,6.0,80,-99.99,,,-99.99,,2013-06-12 03:32:00,
2013-06-11 22:43:00,80.0,73.0,-100.00,SSW,200,3.0,6.0,79,-99.99,,,-99.99,,2013-06-12 03:43:00,
2013-06-11 22:53:00,80.0,73.0,-100.00,SSW,200,3.0,6.0,79,-99.99,,,-99.99,,2013-06-12 03:53:00,
2013-06-11 23:03:00,80.0,73.0,-100.00,South,190,4.0,6.0,79,-99.99,,,-99.99,,2013-06-12 04:03:00,
2013-06-11 23:13:00,80.0,73.0,-100.00,South,190,4.0,6.0,79,-99.99,,,-99.99,,2013-06-12 04:13:00,
2013-06-11 23:23:00,80.0,73.0,-100.00,South,190,4.0,6.0,79,-99.99,,,-99.99,,2013-06-12 04:23:00,
2013-06-11 23:33:00,80.0,73.0,-100.00,South,185,3.0,4.0,80,-99.99,,,-99.99,,2013-06-12 04:33:00,
2013-06-11 23:42:00,80.0,73.0,-100.00,South,190,3.0,4.0,80,-99.99,,,-99.99,,2013-06-12 04:42:00,
2013-06-11 23:53:00,80.0,73.0,-100.00,South,190,3.0,4.0,80,-99.99,,,-99.99,,2013-06-12 04:53:00,